WetterOnline ( https://www.wetteronline.de )

Wetter aktuell Schwarzenborn

Aktuelles Wetter: Bad Hersfeld (273m)

6-stündlich | Neueste Meldungen
Ortszeit Temperatur Wetter
Do, 23.09. 2:00 8.9° C wolkig
Mi, 22.09. 20:00 13.1° C wolkenlos
Mi, 22.09. 14:00 16.2° C bewölkt
Mi, 22.09. 8:00 5.7° C wolkig
Mi, 22.09. 2:00 6.5° C wolkig
Di, 21.09. 20:00 11.0° C bedeckt
Di, 21.09. 14:00 15.2° C bedeckt
Di, 21.09. 8:00 5.2° C bedeckt
Ortszeit Temperatur Wetter
Do, 23.09. 2:00 8.9° C wolkig
Do, 23.09. 1:50 8.9° C wolkig
Do, 23.09. 1:40 9.2° C wolkig
Do, 23.09. 1:30 8.4° C wolkig
Do, 23.09. 1:20 8.4° C wolkig
Do, 23.09. 1:10 8.2° C wolkig
Do, 23.09. 1:00 8.6° C leicht bewölkt
Do, 23.09. 0:30 8.5° C fast wolkenlos
Do, 23.09. 0:00 9.1° C wolkenlos
Mi, 22.09. 23:30 9.1° C wolkenlos
Mi, 22.09. 23:00 9.7° C wolkenlos
Ortszeit Relative Feuchte Sichtweite
Do, 23.09. 2:00 100% 8 km
Mi, 22.09. 20:00 84% 40 km
Mi, 22.09. 14:00 64% 35 km
Mi, 22.09. 8:00 98% 12 km
Mi, 22.09. 2:00 97% 20 km
Di, 21.09. 20:00 80% 60 km
Di, 21.09. 14:00 48% 55 km
Di, 21.09. 8:00 96% 23 km
Ortszeit Relative Feuchte Sichtweite
Do, 23.09. 2:00 100% 8 km
Do, 23.09. 1:50 100% -
Do, 23.09. 1:40 99% -
Do, 23.09. 1:30 99% 5.0 km
Do, 23.09. 1:20 99% -
Do, 23.09. 1:10 98% -
Do, 23.09. 1:00 98% 6 km
Do, 23.09. 0:30 98% 6 km
Do, 23.09. 0:00 98% 14 km
Mi, 22.09. 23:30 98% 8 km
Mi, 22.09. 23:00 97% 12 km
Ortszeit Niederschlagsmenge Niederschlagsart
Do, 23.09. 2:00 0.0 l/m2 in 6 Std. -
Mi, 22.09. 20:00 0.0 l/m2 in 12 Std. -
Mi, 22.09. 14:00 0.0 l/m2 in 6 Std. -
Mi, 22.09. 8:00 0.0 l/m2 in 12 Std. -
Mi, 22.09. 2:00 0.0 l/m2 in 6 Std. -
Di, 21.09. 20:00 0.0 l/m2 in 12 Std. -
Di, 21.09. 14:00 0.0 l/m2 in 6 Std. -
Di, 21.09. 8:00 0.0 l/m2 in 12 Std. -
Ortszeit Niederschlagsmenge Niederschlagsart
Do, 23.09. 2:00 0.0 l/m2 in 1 Std. -
Do, 23.09. 1:50 keine Meldung -
Do, 23.09. 1:40 keine Meldung -
Do, 23.09. 1:30 0.0 l/m2 in 1 Std. -
Do, 23.09. 1:20 keine Meldung -
Do, 23.09. 1:10 keine Meldung -
Do, 23.09. 1:00 0.0 l/m2 in 1 Std. -
Do, 23.09. 0:30 0.0 l/m2 in 1 Std. -
Do, 23.09. 0:00 0.0 l/m2 in 1 Std. -
Mi, 22.09. 23:30 0.0 l/m2 in 1 Std. -
Mi, 22.09. 23:00 0.0 l/m2 in 1 Std. -
Ortszeit Stärke Spitze Richtung
km/h Bft. km/h Grad Sektor
Do, 23.09. 2:00 7 2 11 220° SW
Mi, 22.09. 20:00 6 1 19 180° S
Mi, 22.09. 14:00 11 2 22 360° N
Mi, 22.09. 8:00 0 0 7 - -
Mi, 22.09. 2:00 4 1 7 40° NO
Di, 21.09. 20:00 4 1 14 70° O
Di, 21.09. 14:00 9 2 19 340° N
Di, 21.09. 8:00 2 1 6 20° N
Ortszeit Stärke Spitze Richtung
km/h Bft. km/h Grad Sektor
Do, 23.09. 2:00 7 2 11 220° SW
Do, 23.09. 1:50 7 2 - 220° SW
Do, 23.09. 1:40 7 2 - 190° S
Do, 23.09. 1:30 7 2 7 180° S
Do, 23.09. 1:20 7 2 - 180° S
Do, 23.09. 1:10 4 1 - 160° S
Do, 23.09. 1:00 2 1 6 80° O
Do, 23.09. 0:30 0 0 4 - -
Do, 23.09. 0:00 4 1 7 300° NW
Mi, 22.09. 23:30 4 1 4 210° SW
Mi, 22.09. 23:00 0 0 4 - -
Ortszeit Untergrenze Bedeckung Gattung
total tief tief mittel hoch
Do, 23.09. 2:00 9000 m 7/8 0/8 - - -
Mi, 22.09. 20:00 - 0/8 0/8 - - -
Mi, 22.09. 14:00 750 m 7/8 6/8 - - -
Mi, 22.09. 8:00 30 m 8/8 3/8 - - -
Mi, 22.09. 2:00 9000 m 8/8 0/8 - - -
Di, 21.09. 20:00 6600 m 8/8 8/8 - - -
Di, 21.09. 14:00 1380 m 8/8 8/8 - - -
Di, 21.09. 8:00 1500 m 8/8 8/8 - - -
Ortszeit Bedeckungsgrad in Achtel und Wolkenuntergrenze
Do, 23.09. 2:00 7(9000m) 7(10500m)
Do, 23.09. 1:50 7(9000m) 7(10500m)
Do, 23.09. 1:40 6(9000m) 7(10500m)
Do, 23.09. 1:30 7(9000m) 8(12000m)
Do, 23.09. 1:20 7(9000m) 8(12000m)
Do, 23.09. 1:10 7(9000m) 7(10500m) 8(12000m)
Do, 23.09. 1:00 3(9000m) 5(10500m) 5(12000m)
Do, 23.09. 0:30 2(10500m)
Do, 23.09. 0:00 keine Wolken
Mi, 22.09. 23:30 keine Wolken
Mi, 22.09. 23:00 keine Wolken
Ortszeit Luftdruck NN (hPa) Tendenz (hPa in 3 Std.)
Do, 23.09. 2:00 1025 - 0,7
Mi, 22.09. 20:00 1026 - 0,7
Mi, 22.09. 14:00 1028 - 1,4
Mi, 22.09. 8:00 1031 + 0,2
Mi, 22.09. 2:00 1031 - 0,5
Di, 21.09. 20:00 1030 + 0,7
Di, 21.09. 14:00 1030 + 0,1
Di, 21.09. 8:00 1029 + 1,4
Ortszeit Luftdruck NN (hPa) Tendenz (hPa in 3 Std.)
Do, 23.09. 2:00 1025 - 0,7
Do, 23.09. 1:50 1025 keine Meldung
Do, 23.09. 1:40 1025 keine Meldung
Do, 23.09. 1:30 1026 - 0,6
Do, 23.09. 1:20 1026 keine Meldung
Do, 23.09. 1:10 1026 keine Meldung
Do, 23.09. 1:00 1026 - 0,4
Do, 23.09. 0:30 1026 - 0,4
Do, 23.09. 0:00 1026 - 0,5
Mi, 22.09. 23:30 1026 - 0,4
Mi, 22.09. 23:00 1026 - 0,4
Ortszeit Schneehöhe (cm)
Do, 23.09. 2:00 -
Mi, 22.09. 20:00 -
Mi, 22.09. 14:00 -
Mi, 22.09. 8:00 -
Mi, 22.09. 2:00 -
Di, 21.09. 20:00 -
Di, 21.09. 14:00 -
Di, 21.09. 8:00 -
Ortszeit Schneehöhe (cm)
Do, 23.09. 2:00 -
Do, 23.09. 1:50 -
Do, 23.09. 1:40 -
Do, 23.09. 1:30 -
Do, 23.09. 1:20 -
Do, 23.09. 1:10 -
Do, 23.09. 1:00 -
Do, 23.09. 0:30 -
Do, 23.09. 0:00 -
Mi, 22.09. 23:30 -
Mi, 22.09. 23:00 -
Link zu dieser Seite / Seite empfehlen

Das Wetter in ...